timestamp,wind_dir_avg,wind_spd_avg,wind_spd_max_dir,wind_spd_gust,battery_voltage,lat,long
2021-05-13 00:04:00+00:00,236.0,5.16,235.0,5.72,13.13,47.59359,-54.27349
2021-05-13 00:14:01+00:00,245.0,3.91,254.0,4.44,12.65,47.59359,-54.27349
2021-05-13 00:24:01+00:00,240.0,4.81,245.0,5.89,12.65,47.59359,-54.27349
2021-05-13 00:34:01+00:00,239.0,5.13,238.0,6.14,12.65,47.59359,-54.27349
2021-05-13 00:44:01+00:00,243.0,5.25,241.0,5.97,12.65,47.59359,-54.27349
2021-05-13 00:54:01+00:00,246.0,4.69,250.0,5.48,12.65,47.59359,-54.27349
2021-05-13 01:04:01+00:00,257.0,5.26,264.0,5.84,12.65,47.59359,-54.27349
2021-05-13 01:14:01+00:00,262.0,4.85,261.0,5.66,12.57,47.59359,-54.27349
2021-05-13 01:24:01+00:00,260.0,3.87,264.0,4.7,12.57,47.59359,-54.27349
2021-05-13 01:34:01+00:00,255.0,3.38,248.0,3.79,12.57,47.59359,-54.27349
2021-05-13 01:44:01+00:00,257.0,3.12,260.0,3.38,12.57,47.59359,-54.27349
2021-05-13 01:54:01+00:00,280.0,6.02,278.0,6.59,12.57,47.59359,-54.27349
2021-05-13 02:04:01+00:00,289.0,4.79,292.0,5.4,12.57,47.59359,-54.27349
2021-05-13 02:14:00+00:00,297.0,6.01,298.0,7.74,12.57,47.59359,-54.27349
2021-05-13 02:24:00+00:00,300.0,5.06,304.0,5.58,12.57,47.59359,-54.27349
2021-05-13 02:34:00+00:00,303.0,5.22,298.0,6.22,12.57,47.59359,-54.27349
2021-05-13 02:44:00+00:00,301.0,5.4,305.0,6.12,12.57,47.59359,-54.27349
2021-05-13 02:54:00+00:00,293.0,5.38,291.0,6.16,12.57,47.59359,-54.27349
2021-05-13 03:04:00+00:00,295.0,4.46,299.0,5.51,12.57,47.59359,-54.27349
2021-05-13 03:14:00+00:00,309.0,4.64,314.0,5.38,12.49,47.59359,-54.27349
2021-05-13 03:24:00+00:00,309.0,4.1,310.0,4.67,12.49,47.59359,-54.27349
2021-05-13 03:34:00+00:00,315.0,4.25,312.0,4.83,12.49,47.59359,-54.27349
2021-05-13 03:44:00+00:00,319.0,3.95,320.0,4.52,12.49,47.59359,-54.27349
2021-05-13 03:54:00+00:00,314.0,5.21,312.0,5.62,12.49,47.59359,-54.27349
2021-05-13 04:04:00+00:00,314.0,4.76,314.0,5.2,12.49,47.59359,-54.27349
2021-05-13 04:14:00+00:00,301.0,4.17,306.0,4.74,12.49,47.59359,-54.27349
2021-05-13 04:24:00+00:00,289.0,3.39,297.0,4.83,12.49,47.59359,-54.27349
2021-05-13 04:34:00+00:00,296.0,5.02,301.0,6.08,12.49,47.59359,-54.27349
2021-05-13 04:44:00+00:00,303.0,7.05,304.0,8.03,12.49,47.59359,-54.27349
2021-05-13 04:54:00+00:00,288.0,5.19,291.0,6.11,12.49,47.59359,-54.27349
2021-05-13 05:04:00+00:00,300.0,5.42,298.0,6.2,12.49,47.59359,-54.27349
2021-05-13 05:14:00+00:00,303.0,5.89,298.0,6.69,12.49,47.59359,-54.27349
2021-05-13 05:24:00+00:00,302.0,6.74,288.0,8.91,12.49,47.59359,-54.27349
2021-05-13 05:34:00+00:00,311.0,7.41,315.0,8.42,12.49,47.59359,-54.27349
2021-05-13 05:44:00+00:00,309.0,5.87,314.0,7.01,12.49,47.59359,-54.27349
2021-05-13 05:54:00+00:00,308.0,5.44,316.0,6.06,12.49,47.59359,-54.27349
2021-05-13 06:04:00+00:00,303.0,4.89,311.0,5.63,12.49,47.59359,-54.27349
2021-05-13 06:14:00+00:00,311.0,5.65,318.0,6.75,12.41,47.59359,-54.27349
2021-05-13 06:24:00+00:00,310.0,5.2,307.0,5.83,12.41,47.59359,-54.27349
2021-05-13 06:34:00+00:00,307.0,4.0,304.0,4.59,12.41,47.59359,-54.27349
2021-05-13 06:44:00+00:00,297.0,6.67,300.0,7.92,12.41,47.59359,-54.27349
2021-05-13 06:54:00+00:00,307.0,6.73,309.0,7.62,12.41,47.59359,-54.27349
2021-05-13 07:04:00+00:00,313.0,3.59,317.0,4.24,12.41,47.59359,-54.27349
2021-05-13 07:14:00+00:00,290.0,3.09,286.0,3.86,12.41,47.59359,-54.27349
2021-05-13 07:24:00+00:00,296.0,4.91,289.0,5.79,12.41,47.59359,-54.27349
2021-05-13 07:34:00+00:00,286.0,4.9,282.0,6.03,12.41,47.59359,-54.27349
2021-05-13 07:44:00+00:00,294.0,5.42,289.0,6.17,12.41,47.59359,-54.27349
2021-05-13 07:54:00+00:00,288.0,4.9,286.0,6.19,12.41,47.59359,-54.27349
2021-05-13 08:04:00+00:00,286.0,6.39,292.0,7.38,12.41,47.59359,-54.27349
2021-05-13 08:14:01+00:00,281.0,6.31,288.0,7.68,12.41,47.59359,-54.27349
2021-05-13 08:24:01+00:00,290.0,8.18,297.0,9.47,12.41,47.59359,-54.27349
2021-05-13 08:34:01+00:00,299.0,8.05,295.0,9.6,12.41,47.59359,-54.27349
2021-05-13 08:44:01+00:00,302.0,8.78,310.0,10.07,12.41,47.59359,-54.27349
2021-05-13 08:54:01+00:00,301.0,8.13,304.0,9.93,12.41,47.59359,-54.27349
2021-05-13 09:04:01+00:00,294.0,7.53,305.0,9.46,12.41,47.59359,-54.27349
2021-05-13 09:14:01+00:00,297.0,7.94,305.0,9.34,12.65,47.59359,-54.27349
2021-05-13 09:24:01+00:00,301.0,4.98,297.0,6.35,12.65,47.59359,-54.27349
2021-05-13 09:34:01+00:00,295.0,6.37,299.0,7.34,12.65,47.59359,-54.27349
2021-05-13 09:44:01+00:00,284.0,6.39,283.0,6.95,12.65,47.59359,-54.27349
2021-05-13 09:54:01+00:00,285.0,5.77,285.0,6.79,12.65,47.59359,-54.27349
2021-05-13 10:04:01+00:00,278.0,6.24,283.0,7.65,12.65,47.59359,-54.27349
2021-05-13 10:14:00+00:00,295.0,6.48,301.0,8.01,13.53,47.59359,-54.27349
2021-05-13 10:24:00+00:00,282.0,7.85,285.0,8.86,13.53,47.59359,-54.27349
2021-05-13 10:34:00+00:00,287.0,8.06,290.0,9.03,13.53,47.59359,-54.27349
2021-05-13 10:44:00+00:00,287.0,6.65,301.0,8.0,13.53,47.59359,-54.27349
2021-05-13 10:54:00+00:00,306.0,9.37,301.0,14.04,13.53,47.59359,-54.27349
2021-05-13 11:04:00+00:00,287.0,5.35,290.0,6.38,13.53,47.59359,-54.27349
2021-05-13 11:14:01+00:00,293.0,6.88,302.0,8.68,13.68,47.59359,-54.27349
2021-05-13 11:24:01+00:00,289.0,7.22,288.0,8.05,13.68,47.59359,-54.27349
2021-05-13 11:34:01+00:00,276.0,10.12,280.0,13.36,13.68,47.59359,-54.27349
2021-05-13 11:44:01+00:00,285.0,12.79,290.0,15.0,13.68,47.59359,-54.27349
2021-05-13 11:54:01+00:00,291.0,7.53,277.0,9.65,13.68,47.59359,-54.27349
2021-05-13 12:04:01+00:00,285.0,7.69,288.0,9.36,13.68,47.59359,-54.27349
2021-05-13 12:14:01+00:00,301.0,7.21,309.0,8.69,13.68,47.59359,-54.27349
2021-05-13 12:24:01+00:00,289.0,9.15,288.0,12.12,13.68,47.59359,-54.27349
2021-05-13 12:34:01+00:00,305.0,7.54,303.0,8.84,13.68,47.59359,-54.27349
2021-05-13 12:44:01+00:00,292.0,7.65,292.0,8.66,13.68,47.59359,-54.27349
2021-05-13 12:54:01+00:00,280.0,10.04,278.0,13.77,13.68,47.59359,-54.27349
2021-05-13 13:04:01+00:00,283.0,11.44,283.0,14.75,13.68,47.59359,-54.27349
2021-05-13 13:14:01+00:00,291.0,10.19,289.0,14.2,14.0,47.59359,-54.27349
2021-05-13 13:24:01+00:00,284.0,8.08,288.0,8.81,14.0,47.59359,-54.27349
2021-05-13 13:34:01+00:00,276.0,12.63,279.0,14.46,14.0,47.59359,-54.27349
2021-05-13 13:44:01+00:00,287.0,7.64,295.0,8.77,14.0,47.59359,-54.27349
2021-05-13 13:54:01+00:00,293.0,10.13,288.0,14.72,14.0,47.59359,-54.27349
2021-05-13 14:04:01+00:00,265.0,9.09,263.0,10.62,14.0,47.59359,-54.27349
2021-05-13 14:14:01+00:00,266.0,11.08,268.0,13.25,13.68,47.59359,-54.27349
2021-05-13 14:24:01+00:00,269.0,8.84,268.0,12.46,13.68,47.59359,-54.27349
2021-05-13 14:34:01+00:00,266.0,7.52,264.0,8.38,13.68,47.59359,-54.27349
2021-05-13 14:44:01+00:00,294.0,8.66,283.0,10.82,13.68,47.59359,-54.27349
2021-05-13 14:54:01+00:00,265.0,7.97,267.0,10.92,13.68,47.59359,-54.27349
2021-05-13 15:04:01+00:00,271.0,8.51,272.0,11.92,13.68,47.59359,-54.27349
2021-05-13 15:14:01+00:00,278.0,9.27,273.0,13.53,13.92,47.59359,-54.27349
2021-05-13 15:24:01+00:00,275.0,13.51,276.0,14.54,13.92,47.59359,-54.27349
2021-05-13 15:34:01+00:00,278.0,8.45,276.0,13.03,13.92,47.59359,-54.27349
2021-05-13 15:44:01+00:00,262.0,8.32,262.0,11.41,13.92,47.59359,-54.27349
2021-05-13 15:54:01+00:00,276.0,8.2,273.0,9.62,13.92,47.59359,-54.27349
2021-05-13 16:04:01+00:00,288.0,10.16,285.0,14.83,13.92,47.59359,-54.27349
2021-05-13 16:14:01+00:00,268.0,10.22,265.0,13.74,13.76,47.59359,-54.27349
2021-05-13 16:24:01+00:00,279.0,7.14,284.0,7.84,13.76,47.59359,-54.27349
2021-05-13 16:34:01+00:00,267.0,7.8,270.0,8.57,13.76,47.59359,-54.27349
2021-05-13 16:44:01+00:00,275.0,9.08,282.0,11.06,13.76,47.59359,-54.27349
2021-05-13 16:54:01+00:00,277.0,8.28,272.0,9.58,13.76,47.59359,-54.27349
2021-05-13 17:04:01+00:00,282.0,8.47,282.0,8.99,13.76,47.59359,-54.27349
2021-05-13 17:14:01+00:00,282.0,6.55,284.0,7.74,13.76,47.59359,-54.27349
2021-05-13 17:24:01+00:00,263.0,9.21,267.0,10.11,13.76,47.59359,-54.27349
2021-05-13 17:34:01+00:00,270.0,10.82,274.0,14.44,13.76,47.59359,-54.27349
2021-05-13 17:44:01+00:00,277.0,9.84,276.0,13.06,13.76,47.59359,-54.27349
2021-05-13 17:54:01+00:00,290.0,7.43,284.0,8.78,13.76,47.59359,-54.27349
2021-05-13 18:04:01+00:00,285.0,7.65,287.0,8.34,13.76,47.59359,-54.27349
2021-05-13 18:14:01+00:00,286.0,8.61,286.0,9.88,13.84,47.59359,-54.27349
2021-05-13 18:24:01+00:00,277.0,8.46,281.0,9.64,13.84,47.59359,-54.27349
2021-05-13 18:34:01+00:00,283.0,8.26,283.0,8.98,13.84,47.59359,-54.27349
2021-05-13 18:44:01+00:00,277.0,7.75,281.0,8.91,13.84,47.59359,-54.27349
2021-05-13 18:54:01+00:00,273.0,7.3,283.0,8.41,13.84,47.59359,-54.27349
2021-05-13 19:04:01+00:00,286.0,8.48,289.0,9.34,13.84,47.59359,-54.27349
2021-05-13 19:14:01+00:00,272.0,8.21,266.0,9.22,13.84,47.59359,-54.27349
2021-05-13 19:24:01+00:00,279.0,9.26,277.0,10.3,13.84,47.59359,-54.27349
2021-05-13 19:34:01+00:00,283.0,7.57,285.0,8.71,13.84,47.59359,-54.27349
2021-05-13 19:44:01+00:00,291.0,7.14,291.0,8.28,13.84,47.59359,-54.27349
2021-05-13 19:54:01+00:00,280.0,7.48,286.0,8.74,13.84,47.59359,-54.27349
2021-05-13 20:04:01+00:00,285.0,8.55,286.0,9.53,13.84,47.59359,-54.27349
2021-05-13 20:14:01+00:00,284.0,6.56,283.0,7.32,13.68,47.59359,-54.27349
2021-05-13 20:24:01+00:00,279.0,5.41,280.0,5.74,13.68,47.59359,-54.27349
2021-05-13 20:34:01+00:00,273.0,5.92,271.0,6.63,13.68,47.59359,-54.27349
2021-05-13 20:44:01+00:00,266.0,6.35,264.0,7.44,13.68,47.59359,-54.27349
2021-05-13 20:54:01+00:00,274.0,7.73,274.0,8.29,13.68,47.59359,-54.27349
2021-05-13 21:04:01+00:00,268.0,5.75,264.0,6.16,13.68,47.59359,-54.27349
2021-05-13 21:14:01+00:00,270.0,8.29,270.0,9.07,13.6,47.59359,-54.27349
2021-05-13 21:24:01+00:00,270.0,7.84,271.0,8.65,13.6,47.59359,-54.27349
2021-05-13 21:34:01+00:00,277.0,7.15,279.0,7.97,13.6,47.59359,-54.27349
2021-05-13 21:44:01+00:00,264.0,7.39,262.0,8.1,13.6,47.59359,-54.27349
2021-05-13 21:54:01+00:00,269.0,6.96,270.0,8.05,13.6,47.59359,-54.27349
2021-05-13 22:04:01+00:00,269.0,6.04,270.0,6.69,13.6,47.59359,-54.27349
2021-05-13 22:14:01+00:00,274.0,6.24,274.0,8.1,13.37,47.59359,-54.27349
2021-05-13 22:24:01+00:00,277.0,7.09,282.0,7.95,13.37,47.59359,-54.27349
2021-05-13 22:34:01+00:00,271.0,5.62,278.0,6.56,13.37,47.59359,-54.27349
2021-05-13 22:44:01+00:00,272.0,6.22,275.0,6.79,13.37,47.59359,-54.27349
2021-05-13 22:54:01+00:00,261.0,5.23,267.0,5.77,13.37,47.59359,-54.27349
2021-05-13 23:04:01+00:00,265.0,5.17,267.0,5.73,13.37,47.59359,-54.27349
2021-05-13 23:14:01+00:00,275.0,4.48,275.0,4.91,12.89,47.59359,-54.27349
2021-05-13 23:24:01+00:00,267.0,4.47,262.0,4.87,12.89,47.59359,-54.27349
2021-05-13 23:34:01+00:00,276.0,4.43,275.0,4.75,12.89,47.59359,-54.27349
2021-05-13 23:44:01+00:00,276.0,4.49,282.0,5.41,12.89,47.59359,-54.27349
2021-05-13 23:54:01+00:00,251.0,3.49,257.0,4.19,12.89,47.59359,-54.27349
